Location: Bottom School (historical)
(37.9078°N, 89.3593°W)
Time: 22:54:33
(UTC+00:00)

Cosmos 1570 Rocket - Pass Details

Date: 09 July 2022
Orbit: 762 x 788 km, 74.1° (Epoch: 07 August)

Event Time Altitude Azimuth Distance (km) Brightness Sun altitude
Exits shadow 08:16:19 30° 273° (W) 1,363 5.0 -22.1°
Maximum altitude 08:17:20 32° 295° (WNW) 1,299 5.1 -22.0°
Drops below altitude 10° 08:22:02 10° 359° (N) 2,319 7.2 -21.4°
Sets 08:24:40 0° 9° (N) 3,255 8.3 -21.1°
